Theta_e
311 310 309 308 308 308 308 307 307 307 306 306 307 307 308 310 311 312 314 313 314 314 316 317 317 317 318 317 317 318 318 319 319 320 320 319 319 318 316 315 315 314 313 312 310 308 307 306 305 305 303 303 302 301 300 301 301 300 300 299 299 298 298 299 299 298 295 293 294 295 295 295 295 295 295 297 297 297 296 295 296 296 296 296 296
309 307 307 306 305 305 305 305 304 303 303 303 304 306 307 308 309 310 312 312 312 313 314 315 316 316 316 316 316 317 317 316 316 317 317 318 317 316 314 314 314 312 311 311 309 309 306 305 304 303 302 301 302 302 301 300 301 300 300 297 299 297 297 299 298 296 293 292 291 292 293 293 294 294 294 294 296 296 296 296 296 295 295 295 295
305 305 305 304 304 303 303 302 302 302 302 302 303 304 305 306 308 309 311 311 311 311 312 313 314 316 315 315 316 315 317 317 317 316 316 316 315 314 313 312 312 310 310 310 309 308 306 304 303 303 301 301 300 300 300 300 300 299 299 296 295 297 296 299 297 296 293 295 295 293 290 290 292 291 293 293 294 295 295 295 295 295 294 295 294
303 302 302 302 302 301 301 300 300 301 300 301 302 302 303 304 305 307 309 310 310 310 310 312 313 314 315 315 315 315 314 314 314 314 313 313 312 311 312 311 311 309 309 308 307 307 306 304 303 302 301 301 300 299 300 300 299 299 299 298 297 293 294 295 298 296 296 294 291 291 292 291 289 289 290 292 293 294 294 294 294 294 294 295 294
301 301 301 300 300 300 299 299 300 299 299 299 300 301 302 303 304 305 307 308 309 309 309 309 310 311 312 310 310 311 309 308 309 309 309 309 309 309 309 310 310 308 308 307 306 306 306 304 303 301 301 300 300 299 300 299 299 299 298 297 296 294 293 295 296 297 298 299 296 292 293 291 291 295 291 290 292 291 293 293 294 294 293 292 292
300 300 299 299 299 299 298 298 298 298 298 298 300 301 301 302 303 305 306 307 307 308 308 308 308 307 307 306 305 305 305 305 304 305 306 306 306 309 309 309 309 308 308 307 306 305 305 304 303 301 300 299 299 299 300 300 299 298 298 297 297 297 296 294 294 295 297 300 301 301 301 293 293 293 292 288 290 292 292 293 293 293 293 292 292
300 299 299 298 297 297 297 296 296 296 297 298 299 300 300 301 302 303 303 304 306 305 307 306 306 306 306 306 306 305 304 306 307 308 307 308 308 307 307 307 308 307 307 307 306 305 304 304 303 301 300 300 299 298 298 299 299 299 299 297 297 297 298 294 293 293 295 298 300 300 297 296 298 293 291 292 286 289 291 291 291 293 293 292 292
298 297 297 297 296 296 295 296 296 296 297 297 298 299 299 299 300 301 302 302 303 304 304 305 304 305 305 305 305 304 304 304 306 305 306 306 306 306 306 305 305 306 306 306 305 304 303 303 303 302 300 300 299 298 298 299 300 300 299 297 298 296 296 295 294 294 291 292 295 296 296 297 296 298 303 296 294 287 287 292 292 292 292 292 292
297 296 295 295 295 295 295 295 295 296 296 296 297 297 298 298 298 298 299 300 301 302 303 304 304 303 304 304 303 305 304 304 305 305 304 304 303 304 304 304 304 304 305 305 305 304 302 302 302 301 300 299 298 298 298 299 299 299 298 297 296 296 296 296 296 294 292 292 293 293 295 294 294 296 299 299 296 292 291 288 288 292 291 291 291
296 296 295 295 295 295 295 295 295 295 296 297 297 297 297 297 296 296 297 298 298 299 301 302 303 303 302 303 303 303 304 304 304 303 303 303 302 302 302 302 302 302 303 303 303 303 302 302 301 301 300 299 298 298 298 298 299 299 298 297 296 296 296 296 296 296 294 293 293 293 292 292 293 293 293 293 295 296 292 288 290 288 286 289 291
294 294 294 294 295 294 295 294 294 294 295 295 296 297 297 296 296 295 295 296 297 298 299 299 301 301 301 302 302 301 302 303 302 302 302 302 301 301 301 301 301 301 301 301 302 302 302 302 301 301 301 300 298 298 297 298 299 299 299 298 297 296 296 296 296 297 296 294 295 293 292 292 291 290 290 291 291 291 291 293 292 290 290 289 290
294 293 292 293 293 293 293 293 293 293 293 294 295 296 295 295 295 294 294 295 296 296 297 297 298 299 300 300 300 301 301 301 300 301 301 301 301 301 301 301 300 301 300 300 300 301 301 301 301 300 300 299 299 298 297 297 298 299 298 297 296 297 297 295 296 296 297 295 295 295 294 294 293 293 294 293 292 291 292 290 293 292 292 292 292
293 292 292 292 291 291 291 292 292 292 292 293 293 294 294 294 294 294 293 294 294 295 295 296 296 296 296 297 298 299 299 300 300 300 301 300 300 300 300 300 300 299 299 299 299 300 300 299 300 299 299 299 299 299 298 298 297 297 297 297 296 296 295 295 295 295 296 296 295 296 295 295 294 295 295 295 295 294 293 290 293 293 290 290 289
292 292 291 291 291 291 291 291 291 291 291 292 292 293 293 293 293 293 293 294 294 294 294 294 294 295 295 296 296 297 297 298 298 299 299 300 300 300 300 300 300 300 299 299 299 300 300 300 300 299 299 299 299 299 298 298 297 296 296 296 296 296 295 295 294 295 295 296 296 296 295 294 295 295 295 296 294 293 291 291 292 291 292 289 288
292 291 291 290 291 291 291 291 291 291 291 291 291 292 292 292 292 292 292 293 293 293 294 293 293 294 294 295 295 295 295 296 296 297 297 298 299 299 299 299 299 299 300 300 300 300 299 299 299 299 299 299 299 298 298 298 297 296 296 296 295 295 295 294 294 293 293 294 295 295 295 295 295 295 295 295 296 295 293 292 292 288 288 288 285
291 291 290 290 290 290 290 290 290 290 290 291 291 291 291 291 291 291 291 292 292 292 293 293 294 293 293 293 293 294 294 295 295 296 296 297 297 297 297 298 298 299 299 300 301 300 299 299 299 298 299 299 298 298 297 297 297 296 295 294 294 295 294 293 293 293 293 293 293 294 293 293 294 294 295 295 296 296 295 295 293 291 287 285 286
290 290 289 289 289 289 290 290 290 290 290 290 290 291 291 291 291 290 291 291 291 292 292 292 293 293 293 293 292 293 293 293 293 294 294 295 296 296 296 297 297 298 298 299 299 300 299 299 298 298 298 298 298 297 297 296 296 295 294 294 293 294 293 293 293 292 292 293 293 293 293 293 293 293 293 294 295 295 295 294 294 292 291 288 285
288 289 289 289 289 289 289 290 289 289 289 289 289 290 291 291 291 290 290 290 291 291 291 291 291 292 292 292 292 292 292 292 293 293 293 294 294 295 295 295 296 297 297 298 298 298 299 297 297 297 297 297 297 297 296 296 295 294 294 294 293 294 293 293 293 292 292 292 292 292 292 291 292 292 292 293 293 293 293 293 293 293 293 289 288
288 288 288 288 288 288 288 288 289 289 289 289 289 290 290 290 290 291 290 290 290 291 291 291 291 291 291 291 291 291 292 292 292 292 293 292 292 293 293 294 295 295 295 296 296 296 296 297 297 296 296 296 296 296 295 295 295 294 294 293 293 293 292 292 292 292 292 291 291 290 291 291 291 291 291 292 292 292 292 292 292 293 292 291 290
288 288 288 288 288 287 287 287 288 288 288 289 289 289 288 289 289 289 290 290 290 290 290 290 291 290 290 290 290 290 291 291 291 292 291 291 291 291 291 292 293 293 293 294 294 294 295 295 295 295 295 295 295 295 295 294 294 293 293 292 292 292 291 291 291 291 291 291 290 290 290 290 291 290 290 291 291 291 291 291 291 291 291 291 290
287 287 287 287 287 287 287 288 288 289 289 289 289 288 288 288 288 289 288 288 288 289 289 289 290 290 289 289 289 289 289 289 290 291 290 290 291 291 291 291 291 292 292 292 292 293 293 294 294 294 294 294 294 294 294 294 293 292 292 292 292 291 291 291 291 290 291 290 290 289 289 290 290 289 289 290 290 290 290 290 290 290 290 290 290
286 287 287 287 287 287 287 288 288 288 288 288 288 288 287 287 288 288 288 288 288 288 288 289 289 290 289 289 289 289 289 289 288 288 288 289 289 290 291 291 290 291 291 291 291 292 292 292 292 293 293 294 294 294 293 293 292 292 291 292 291 291 290 290 290 289 290 290 290 289 289 289 289 289 289 289 289 289 289 288 288 289 289 289 290
286 286 286 287 287 287 287 287 287 287 287 287 287 287 287 287 287 287 287 287 288 288 289 289 289 288 288 288 288 288 288 288 288 288 287 288 288 288 290 289 290 290 290 290 290 291 291 291 291 292 292 292 293 293 293 292 292 291 291 291 291 290 289 289 289 289 289 289 289 288 288 288 289 288 288 288 288 288 288 288 287 288 288 288 288
286 287 287 287 287 287 287 287 287 287 288 287 287 287 287 286 286 286 286 287 287 288 288 288 288 288 288 287 287 287 287 286 286 287 287 288 288 288 289 288 289 289 288 289 289 289 290 290 290 290 290 291 291 292 292 292 291 291 290 290 290 289 289 289 289 288 289 288 288 287 288 288 288 287 287 287 287 288 287 287 287 287 287 287 287
286 286 286 286 286 286 286 287 287 287 287 287 287 287 287 287 286 286 286 287 287 287 287 287 287 287 287 287 287 286 286 286 286 287 287 287 288 288 288 288 288 288 289 288 288 288 288 288 288 289 289 289 289 290 290 290 291 290 290 290 289 289 289 289 288 288 288 288 288 287 287 287 287 286 286 286 286 286 287 286 286 286 286 287 286
285 286 286 285 286 286 286 286 287 286 286 287 287 287 287 286 286 286 285 286 287 287 287 287 287 287 287 286 286 286 286 286 286 286 286 287 287 287 287 287 288 287 288 288 288 288 287 287 287 287 287 288 288 288 288 289 289 289 289 289 289 289 288 288 288 288 288 288 288 287 287 287 286 286 286 286 286 285 286 285 285 285 286 285 285
285 285 286 286 286 286 286 286 286 286 287 287 287 287 286 286 286 286 286 286 286 287 286 286 286 286 286 285 285 285 286 286 286 286 287 287 287 287 287 286 287 287 287 287 287 288 288 288 288 288 287 287 287 287 287 287 288 288 288 288 288 288 288 288 288 288 288 288 288 287 287 287 286 286 286 286 285 285 285 284 285 285 285 284 284
285 285 285 285 285 286 286 286 286 286 287 287 287 287 287 286 286 286 285 285 287 286 285 286 285 285 285 285 285 286 286 286 286 286 286 286 286 287 287 287 287 286 286 286 286 286 287 287 287 287 288 288 287 286 286 287 288 288 287 287 287 287 287 287 287 288 288 287 287 287 287 287 287 287 286 286 286 285 285 284 284 284 284 284 283
285 285 286 285 285 286 286 286 286 286 286 286 286 287 287 287 286 286 286 285 285 285 284 285 284 284 284 285 285 286 286 285 285 285 285 285 285 286 287 287 286 286 287 286 286 286 286 286 287 287 287 287 287 287 287 286 286 286 287 287 287 287 287 286 286 287 287 287 287 287 287 287 287 286 287 287 287 287 285 284 284 284 284 283 283
284 285 285 285 286 286 285 286 286 286 285 286 286 286 286 286 286 286 286 285 285 284 284 284 283 283 284 284 285 285 285 285 285 284 284 284 284 285 286 286 286 286 286 286 286 285 285 285 286 286 286 287 287 288 287 288 288 286 286 286 286 286 286 286 286 286 286 286 286 286 287 286 286 286 286 287 287 288 287 286 285 284 284 283 283
286 285 285 285 286 286 286 285 286 286 286 286 286 286 287 286 286 286 285 285 285 283 283 283 283 284 284 284 284 284 284 284 284 284 283 283 283 284 285 285 285 285 285 285 285 285 285 285 285 285 285 286 287 287 288 290 290 290 288 286 285 285 286 285 285 285 285 286 286 286 286 286 285 285 285 286 287 288 287 288 287 287 286 284 283
286 286 286 285 285 285 285 285 285 286 286 286 286 286 286 286 286 286 286 285 284 283 283 283 283 283 283 283 283 283 283 283 283 282 282 281 282 283 284 285 285 285 284 284 284 284 284 284 284 284 284 285 285 287 288 289 289 289 289 287 286 286 285 285 285 285 285 285 285 286 286 286 285 285 285 285 286 287 287 287 287 287 287 287 287
285 286 286 285 285 285 285 285 285 286 286 286 287 286 286 286 286 286 286 284 283 283 283 283 283 283 283 283 283 282 282 282 282 281 281 280 280 281 282 284 284 284 284 283 283 283 283 284 284 283 283 284 285 287 287 288 288 288 288 288 287 286 286 285 285 285 285 285 285 285 285 285 286 285 285 284 284 284 286 287 287 287 287 287 288
285 286 287 287 286 286 286 286 286 287 287 287 287 286 287 287 286 286 285 284 283 283 283 282 282 282 282 282 282 282 281 281 281 280 280 279 279 279 281 283 284 284 283 282 282 282 283 283 283 283 283 283 283 285 287 287 287 288 288 288 286 286 286 286 286 285 285 285 285 285 284 284 285 285 285 284 284 283 283 283 284 284 284 285 286
285 286 287 287 287 286 286 286 286 286 287 287 287 287 287 287 286 285 284 283 283 282 282 282 281 281 281 281 281 281 281 281 280 280 279 278 278 278 279 281 282 282 281 280 281 281 282 282 282 282 282 282 283 285 286 287 287 287 287 287 286 286 286 286 286 286 286 285 285 285 285 284 284 284 284 284 283 283 283 282 283 283 283 283 283
284 284 285 286 287 286 286 286 287 287 287 287 287 287 286 285 285 284 284 283 282 282 281 281 281 281 281 281 280 280 280 280 279 279 278 277 277 277 277 279 281 281 280 280 280 280 280 280 280 281 281 281 282 285 285 286 287 287 287 285 285 285 285 285 285 286 286 286 286 285 285 284 284 284 285 287 286 284 282 282 281 282 282 283 283
285 285 285 286 286 287 287 287 287 287 287 286 287 286 285 284 283 283 283 282 282 281 280 280 280 280 280 280 280 279 279 279 278 277 276 276 276 276 277 278 279 279 278 278 277 277 278 279 279 279 279 280 281 283 285 285 286 286 286 284 284 284 284 284 285 285 286 286 286 286 285 285 284 284 286 287 287 286 282 281 281 280 281 281 282
284 285 285 286 286 287 286 286 285 285 285 284 283 281 281 280 280 280 280 280 280 280 280 280 280 280 280 280 279 279 278 278 277 276 276 276 276 276 276 277 277 276 276 276 276 276 276 277 278 278 279 279 280 282 284 284 285 285 285 283 283 283 283 283 284 285 285 286 286 286 285 285 284 284 286 287 287 286 282 281 281 280 280 280 281
285 284 284 285 284 284 284 284 284 282 282 281 281 280 278 277 278 278 278 278 278 279 279 279 279 279 279 279 278 278 278 277 276 276 275 274 274 274 275 276 276 275 274 275 275 274 274 275 276 277 279 279 280 281 283 283 284 285 284 283 283 282 282 282 283 283 285 285 285 286 285 285 285 285 286 287 287 286 283 282 281 280 279 279 280
284 284 283 283 283 282 281 281 280 280 280 280 279 278 277 276 276 277 276 276 277 277 278 278 278 278 277 277 277 276 276 276 275 274 274 274 274 274 274 274 274 274 273 273 273 273 272 273 275 276 276 277 277 278 280 283 283 284 285 283 283 282 281 281 282 283 283 284 285 285 286 287 288 288 287 286 286 287 283 282 282 280 279 279 281
282 281 282 280 280 279 278 278 278 279 278 278 277 276 275 274 274 274 274 274 275 276 276 276 276 275 275 274 275 275 274 274 274 273 273 273 273 273 273 272 272 271 271 271 270 271 271 271 272 273 273 274 276 277 279 282 283 284 285 284 282 281 281 281 281 282 282 283 283 284 284 286 287 288 287 286 286 286 286 283 282 280 280 281 282
282 281 280 278 277 277 277 277 277 276 276 275 275 273 273 272 272 271 272 273 273 273 273 273 273 272 272 272 272 272 272 272 272 272 271 271 272 272 271 271 271 270 269 268 269 269 269 269 270 271 273 274 276 278 278 281 283 284 284 285 282 281 282 281 281 281 282 282 283 284 284 285 286 287 287 287 286 286 286 284 283 284 284 284 282
278 278 278 276 275 275 274 274 274 274 274 273 272 271 270 270 269 270 271 271 271 271 270 270 270 269 269 269 269 269 270 270 270 270 270 269 270 269 269 269 268 268 267 267 267 267 268 268 270 271 272 274 275 277 280 280 282 283 284 284 285 283 284 283 281 280 281 282 283 283 284 285 286 286 286 287 287 286 285 284 286 286 285 284 283
277 277 275 274 273 272 271 272 272 272 271 271 270 268 268 268 267 269 269 269 268 267 267 267 266 266 266 266 266 267 267 268 268 268 268 267 267 267 267 268 267 267 266 266 267 267 268 268 268 269 272 274 275 277 279 281 281 283 284 284 285 285 285 282 282 281 281 282 282 283 284 286 286 285 285 286 286 286 284 285 286 286 285 284 282
275 274 273 272 270 269 269 269 270 269 269 269 269 267 266 265 266 267 266 265 264 264 263 263 262 262 263 263 264 264 264 265 265 266 265 266 266 266 265 266 266 266 266 265 266 267 266 267 268 269 270 272 274 275 277 279 282 283 283 284 284 285 285 285 283 282 283 282 284 285 285 286 285 285 285 285 285 285 285 285 285 285 284 282 281
273 272 271 269 269 268 267 267 267 267 267 267 266 265 263 263 264 264 263 262 262 261 260 260 260 261 261 261 261 261 262 263 263 264 264 265 265 265 265 265 265 265 265 265 265 266 266 267 267 268 269 270 272 274 275 277 279 281 282 283 283 284 284 284 284 282 284 284 285 285 285 285 285 284 283 282 282 282 284 284 284 284 283 282 280
270 270 269 267 266 265 265 265 263 265 264 264 263 263 263 263 262 262 262 261 260 259 259 259 259 259 260 260 259 260 260 261 262 262 263 264 264 264 264 264 264 264 264 264 265 265 265 266 266 267 268 270 271 272 273 274 276 277 278 280 280 281 282 283 282 282 282 282 283 283 283 284 284 284 283 283 283 283 282 282 282 282 282 282 280
269 268 267 265 264 263 263 262 262 262 263 262 262 262 262 262 261 261 260 260 259 259 258 258 258 259 259 259 259 260 260 260 261 261 261 261 262 263 262 262 262 263 262 263 263 264 264 265 265 266 267 268 269 270 271 273 275 276 278 279 279 279 278 279 279 280 280 280 281 282 283 282 283 281 281 281 280 280 280 280 280 281 281 281 281
266 266 265 263 263 262 261 261 260 261 261 261 261 261 261 261 261 260 260 258 258 258 258 258 258 258 258 259 259 259 259 259 260 260 260 261 261 261 261 261 262 263 263 262 262 262 263 264 264 265 265 265 266 267 269 274 274 276 275 275 276 277 278 278 279 281 279 279 280 279 279 280 280 279 278 278 278 279 279 279 279 280 280 280 279
265 264 263 262 262 261 260 259 260 260 260 260 260 260 260 260 260 259 259 258 258 258 257 257 258 258 258 258 259 259 259 259 259 259 259 260 263 266 264 262 262 266 268 270 269 264 265 265 265 265 266 265 265 267 272 274 275 276 277 278 279 280 281 280 280 281 281 278 278 278 278 278 278 278 277 277 277 277 277 278 278 279 279 279 278
263 262 261 260 260 259 259 259 259 260 259 259 259 259 259 259 259 259 259 258 258 257 257 257 257 257 258 258 258 258 258 258 258 259 259 259 259 261 266 267 268 267 268 269 270 271 271 272 268 267 269 273 273 274 275 275 276 277 278 278 279 280 281 282 282 280 278 277 277 277 277 277 277 277 276 276 277 277 277 277 277 278 278 278 277
Wind_Speed
5 8 10 12 12 11 11 10 11 11 12 12 9 7 4 3 3 4 3 5 5 6 6 6 7 7 7 8 8 7 9 12 9 8 10 10 11 8 7 8 8 10 10 10 10 9 8 8 8 8 8 8 8 9 9 9 9 9 7 7 9 7 5 6 7 7 7 5 3 3 2 2 1 2 3 3 3 3 3 4 3 3 3 3 3
7 9 11 12 13 14 12 11 13 15 15 14 13 11 8 6 4 3 2 4 5 5 5 6 6 6 6 6 7 6 7 7 8 8 9 10 8 6 6 7 8 8 8 9 9 10 9 9 8 8 9 9 8 8 9 8 10 9 8 7 6 9 7 8 8 8 5 6 5 3 3 3 3 3 3 4 4 4 3 4 3 4 4 4 3
10 11 12 12 13 14 11 11 12 13 13 14 14 13 10 7 4 3 2 2 3 4 5 5 5 5 5 4 5 5 4 4 5 6 8 8 6 5 6 6 7 7 8 8 8 10 10 9 8 8 9 8 9 9 10 10 10 12 11 9 8 6 6 7 9 9 6 6 5 4 3 3 3 3 5 6 6 5 4 4 4 4 5 4 4
11 12 13 13 13 13 13 13 12 11 11 12 14 13 9 9 8 6 3 1 1 2 4 3 3 3 4 4 2 3 2 2 3 3 4 5 5 5 5 5 7 7 8 9 7 8 10 10 8 8 9 9 9 10 11 11 11 10 11 11 10 9 8 8 9 10 6 9 7 7 4 4 3 7 7 7 7 6 6 6 5 5 5 4 3
11 12 13 13 14 15 14 14 12 13 14 14 13 12 9 10 9 8 5 4 3 2 1 2 1 2 2 2 1 2 1 1 3 5 6 6 6 6 8 8 9 9 9 10 9 9 9 9 9 8 9 10 9 9 10 11 11 12 13 12 13 11 10 7 9 10 9 8 6 5 2 4 6 2 8 4 6 6 7 6 6 6 6 6 4
13 12 13 12 13 13 14 15 16 15 15 14 12 12 12 9 9 8 6 6 6 5 3 2 2 2 3 3 4 4 5 5 7 6 6 7 7 6 6 8 8 8 8 9 10 9 10 10 9 9 9 9 9 10 9 9 11 12 13 13 13 12 11 8 8 9 11 8 4 2 0 2 4 6 7 3 5 6 5 7 6 7 6 6 5
12 13 13 15 14 14 16 17 15 15 14 12 11 11 11 9 9 9 8 7 7 7 6 3 3 3 4 5 5 5 5 4 4 5 4 4 4 6 6 7 8 9 9 9 9 10 10 9 10 10 9 9 10 10 10 11 10 12 11 12 12 12 10 10 12 10 6 6 6 4 3 3 2 7 4 6 4 4 6 7 7 7 7 7 6
10 12 13 14 15 15 16 15 15 14 13 12 11 10 11 11 11 11 9 10 9 8 7 6 5 4 5 4 4 5 5 6 5 3 3 3 3 4 5 5 7 8 9 9 9 10 9 9 9 9 9 9 9 10 11 9 7 9 11 13 10 12 13 11 11 11 13 11 11 5 4 2 3 3 2 4 4 6 6 5 6 8 7 7 7
11 10 13 13 14 14 14 14 14 14 14 13 11 11 10 10 12 12 12 11 11 11 9 7 6 6 6 5 5 5 5 5 5 3 3 2 4 4 5 5 6 8 9 9 9 9 9 10 9 9 9 9 9 8 10 9 11 11 12 12 13 12 12 11 10 11 12 10 10 9 7 6 5 4 3 1 3 4 5 9 7 6 6 7 8
10 10 11 11 11 10 10 11 13 13 11 11 11 10 8 8 13 14 14 11 10 11 10 9 8 6 5 6 7 7 7 6 5 5 4 3 3 4 4 5 5 6 8 9 8 9 9 10 9 10 10 10 8 9 10 10 10 10 12 13 13 12 11 12 12 10 12 12 12 10 11 8 6 5 4 4 3 4 3 8 8 11 9 8 8
7 8 10 10 10 10 10 11 11 11 9 10 9 7 7 12 14 16 14 11 12 11 11 10 8 7 6 7 6 6 7 7 7 7 6 5 5 4 4 4 5 5 6 7 9 9 10 9 9 10 10 9 9 9 10 10 8 8 9 12 12 13 11 11 11 10 9 12 11 11 13 14 14 12 12 9 8 5 4 5 7 9 8 6 9
7 8 10 10 9 10 10 11 11 12 11 9 7 8 11 14 14 16 16 14 12 11 11 11 9 8 8 8 7 7 7 5 6 7 7 7 6 6 4 4 5 5 5 6 7 9 8 9 9 10 9 10 11 9 9 9 8 7 8 9 10 12 12 10 10 12 10 9 12 10 12 12 12 11 10 10 9 9 8 6 6 6 5 4 5
8 9 10 10 8 7 9 9 8 6 5 7 10 11 12 14 16 16 16 15 13 12 12 11 10 10 9 8 8 7 7 7 7 6 6 6 6 6 6 5 4 5 5 6 7 8 8 8 9 9 9 10 10 9 9 11 10 9 8 10 12 13 13 13 12 14 13 11 10 11 10 10 12 10 9 8 8 7 7 7 4 8 5 4 4
8 9 8 4 5 7 8 7 6 7 10 11 12 13 12 12 14 15 15 14 13 12 12 11 11 10 9 9 8 7 7 7 7 7 6 6 5 6 6 6 6 6 6 6 6 6 7 8 8 9 10 9 9 10 10 10 11 10 10 11 12 12 12 15 13 13 13 13 9 8 11 10 10 9 10 8 8 7 7 8 3 2 2 5 3
7 7 4 4 7 7 6 6 7 9 11 11 11 12 11 11 12 14 14 13 13 12 11 12 10 10 10 9 8 7 7 7 7 7 7 7 7 6 6 6 6 7 6 5 5 6 7 7 8 8 9 9 9 9 8 10 10 10 10 10 10 11 12 13 13 14 13 14 13 11 10 10 9 9 10 10 8 9 9 8 7 6 1 3 4
5 3 4 7 8 7 7 8 9 9 10 10 11 10 10 10 12 13 12 11 11 12 11 11 10 9 10 10 9 8 7 6 6 6 7 8 8 7 7 6 6 7 7 7 5 5 5 6 7 8 9 8 9 9 9 9 9 10 10 10 11 8 11 13 13 13 15 14 14 14 11 11 10 9 9 10 9 8 9 7 7 8 9 6 5
4 4 6 8 8 8 8 9 8 8 9 9 9 9 10 10 11 12 11 10 10 10 10 10 10 10 10 10 9 8 8 8 7 8 9 8 7 7 7 7 7 6 5 6 7 5 5 6 7 8 8 8 8 9 8 8 8 9 10 10 11 10 11 13 12 13 13 13 13 14 14 12 11 10 9 9 8 8 7 7 8 10 8 9 6
4 6 7 7 7 8 8 8 8 8 9 9 10 9 8 8 9 9 8 9 9 9 10 10 10 10 10 10 10 9 8 7 7 7 7 7 7 7 7 7 7 7 6 5 6 6 6 6 7 6 6 7 8 8 7 7 7 8 9 10 10 8 11 11 11 12 12 11 13 12 12 12 11 10 11 10 10 10 8 8 9 8 8 11 8
4 5 5 6 8 8 8 8 8 8 9 9 9 9 9 8 8 7 8 8 9 8 8 8 8 7 7 8 9 9 9 9 8 8 7 6 6 6 6 6 7 7 7 6 5 5 6 6 5 6 6 6 7 7 7 7 8 9 9 9 9 10 10 11 11 11 11 11 12 14 13 12 11 11 11 10 10 10 9 8 8 8 8 10 10
3 4 4 4 5 6 6 7 8 8 8 8 7 6 9 8 8 8 8 8 9 9 8 7 7 6 6 6 6 7 7 7 7 7 6 6 6 6 6 6 6 6 5 5 5 5 5 6 5 6 7 7 7 7 7 7 7 9 9 8 9 10 12 12 11 10 10 11 13 14 14 13 12 11 11 10 10 11 10 9 9 9 9 9 8
3 2 2 2 2 2 3 4 4 5 6 7 7 9 9 9 10 9 9 9 9 8 7 6 6 6 6 8 8 7 8 7 7 6 6 6 6 6 6 5 6 6 6 6 5 4 5 5 6 6 6 7 7 7 7 7 8 8 8 9 9 10 12 12 11 12 11 12 13 14 14 14 12 13 12 10 11 11 10 10 9 9 10 9 9
1 1 0 1 1 2 3 4 4 6 6 7 7 6 7 8 7 8 8 8 8 8 7 7 6 6 7 6 6 5 5 6 6 6 7 7 8 7 7 7 7 6 6 7 6 4 3 4 5 6 7 7 7 7 7 7 8 8 9 7 8 10 11 12 11 13 12 11 12 15 16 14 11 13 13 13 12 11 11 11 11 10 10 9 9
1 1 2 2 2 3 3 3 4 4 4 5 5 5 5 6 6 6 7 7 7 6 6 6 6 6 6 6 5 5 4 4 4 4 6 6 7 8 8 8 7 7 7 6 6 6 5 5 5 5 6 7 7 8 6 7 8 9 9 9 9 10 11 12 12 14 13 12 13 15 16 14 10 13 14 14 12 13 12 13 14 11 12 11 10
2 2 2 2 2 3 2 2 3 2 2 3 2 2 3 3 4 5 5 6 6 6 6 5 5 5 4 5 5 6 6 6 7 6 7 6 6 6 6 7 6 6 7 6 6 6 6 6 6 6 6 7 7 7 7 7 8 8 9 10 10 10 12 13 13 13 13 13 14 14 15 14 12 14 15 14 13 13 13 13 14 13 12 12 10
3 3 3 3 2 2 2 2 2 2 2 3 2 2 3 2 3 3 4 4 5 5 5 6 5 6 5 5 5 5 6 7 8 6 7 7 6 6 6 7 7 6 6 6 6 6 6 6 5 6 7 7 7 7 7 7 7 7 9 10 10 10 11 12 13 13 13 13 14 15 15 12 12 14 15 14 13 14 13 12 13 13 12 12 9
3 2 2 3 2 2 2 2 1 2 2 2 3 2 3 3 2 2 3 4 5 4 5 5 5 5 5 6 5 5 6 6 7 7 7 7 7 6 6 6 7 7 7 6 7 6 6 7 6 6 6 7 7 7 7 7 7 7 8 9 10 10 11 11 12 13 13 13 14 14 14 12 13 15 16 14 13 14 12 12 14 13 12 11 11
2 2 2 2 3 2 2 2 2 2 2 2 3 3 3 3 3 2 3 3 4 4 5 5 5 5 4 5 5 6 6 6 6 6 6 6 6 6 5 6 6 6 6 7 7 6 6 6 7 6 6 6 7 7 8 8 8 8 9 10 10 10 11 11 11 12 12 13 15 15 14 13 15 16 16 15 14 13 12 15 15 13 12 11 11
3 4 4 4 5 5 5 6 6 5 5 4 4 4 4 4 4 3 3 3 3 4 5 5 5 5 5 5 5 5 6 6 6 7 6 7 7 6 6 6 6 6 7 7 7 7 7 6 6 6 7 6 6 6 7 7 8 9 9 10 10 11 11 12 12 12 12 13 13 14 15 15 15 15 15 14 13 14 12 14 13 12 11 12 12
6 6 5 5 5 5 5 6 6 6 7 8 7 7 6 6 5 5 5 6 6 6 6 6 6 6 6 6 6 5 5 6 6 6 7 8 8 8 8 7 6 6 5 5 6 7 7 7 6 6 6 5 5 6 5 6 6 7 8 10 11 12 12 12 12 12 13 13 13 12 13 13 15 18 20 18 16 14 11 13 13 12 12 12 12
7 6 6 6 5 5 5 5 6 6 6 6 6 6 7 7 8 7 7 6 7 7 8 8 8 7 7 7 7 6 6 7 7 7 7 8 8 8 8 8 8 7 7 6 6 6 6 6 7 7 6 5 5 4 7 12 11 8 8 8 9 10 11 13 13 14 13 13 13 13 12 16 17 19 21 21 20 20 20 17 12 11 12 12 13
8 8 7 7 7 7 7 7 7 7 7 6 6 6 6 7 7 6 6 6 6 8 8 8 9 8 8 8 8 7 7 7 7 7 5 7 11 9 8 7 7 6 8 7 7 8 6 6 7 7 7 6 5 5 8 9 12 16 12 9 9 10 10 12 13 14 15 14 13 13 12 13 15 16 17 20 20 22 22 23 22 18 15 14 13
9 9 8 8 8 8 7 8 8 8 8 7 7 7 6 7 7 6 6 5 5 6 7 8 8 9 9 9 8 8 8 7 7 5 6 7 7 8 8 8 9 8 7 7 9 8 9 8 7 7 7 7 7 8 11 12 13 14 13 10 9 9 9 11 11 13 13 13 13 13 13 10 11 13 13 13 18 22 23 23 23 22 21 21 21
9 9 9 8 8 8 8 8 8 7 8 8 8 8 8 8 7 7 5 5 6 6 6 7 7 7 8 8 8 7 6 5 4 4 4 6 8 8 9 8 7 7 8 8 10 10 10 9 8 9 8 8 8 9 12 14 14 14 16 14 9 9 10 10 12 12 13 13 12 12 12 11 10 15 13 13 13 14 19 23 23 23 24 25 24
10 10 10 9 8 8 8 8 9 9 9 9 8 8 9 8 8 7 7 7 7 7 7 7 7 7 7 7 8 7 8 8 7 6 5 6 7 8 9 8 9 8 7 8 9 10 9 10 9 10 11 10 9 10 14 14 15 16 16 14 8 10 10 11 13 13 12 13 13 12 13 12 11 11 10 12 12 12 11 12 15 16 16 20 24
11 11 10 10 9 10 9 10 10 10 9 8 8 8 8 7 7 7 7 7 7 8 7 7 8 8 7 5 6 7 8 8 8 7 8 9 10 10 10 9 8 7 8 9 10 9 8 9 9 10 10 11 10 15 16 17 17 17 17 15 9 9 10 10 12 12 13 13 13 13 14 15 13 10 11 13 12 10 9 10 12 14 16 16 16
10 12 12 12 11 10 10 9 8 8 7 7 8 7 7 7 6 6 7 7 7 6 9 8 8 9 8 8 8 9 9 7 6 6 8 10 10 10 11 11 9 8 8 9 9 8 10 12 11 10 10 12 13 17 17 17 17 17 18 9 8 9 10 10 11 12 12 12 13 13 14 14 14 13 15 19 16 11 9 11 14 14 14 14 15
10 11 12 12 13 13 12 11 9 7 6 6 7 6 6 7 7 6 7 8 8 9 9 10 9 10 9 11 11 10 10 9 6 8 10 10 10 11 11 8 10 10 10 10 10 10 10 11 12 12 12 13 12 15 17 17 17 17 13 8 9 9 10 11 12 12 11 12 13 13 14 14 15 14 14 16 17 17 11 13 14 15 14 13 15
11 11 11 12 11 11 11 11 12 10 9 8 9 8 8 6 7 8 9 10 10 11 11 10 12 10 12 11 9 9 10 11 10 11 11 8 8 8 10 9 10 10 11 11 10 11 11 11 11 13 12 12 13 15 19 19 20 20 15 10 9 9 10 11 11 12 10 11 13 18 16 14 15 15 17 17 19 17 14 14 14 14 15 16 16
11 12 10 9 9 10 11 10 10 10 9 8 8 7 6 7 8 10 9 11 11 12 12 11 12 12 11 10 10 11 12 11 11 11 11 12 13 12 10 10 10 9 10 10 10 10 12 13 13 14 16 16 14 16 20 22 22 21 15 9 9 9 10 11 11 11 11 10 12 13 18 18 16 15 17 18 22 18 14 14 14 13 16 18 17
10 9 9 10 10 11 11 11 11 11 11 11 8 7 8 9 10 10 10 10 12 12 12 13 13 12 9 9 11 12 13 12 13 13 12 12 12 12 12 10 9 8 9 10 11 11 14 14 13 13 13 14 15 16 18 24 23 22 20 11 8 8 10 12 11 11 11 10 11 11 13 18 23 23 20 21 23 24 17 14 13 14 16 20 10
9 8 9 8 8 8 9 11 10 10 11 10 8 9 10 10 11 11 11 12 12 13 13 12 12 11 11 14 13 13 14 14 13 14 13 13 11 12 12 11 12 9 10 11 13 14 14 15 15 15 15 16 15 16 18 24 24 24 22 17 9 11 12 12 12 11 10 11 11 10 10 14 20 22 23 23 24 25 24 16 15 16 17 12 10
7 8 8 7 8 9 10 9 9 10 10 8 9 10 11 11 11 11 12 13 13 13 12 12 12 13 14 14 15 14 14 14 14 13 14 14 13 13 13 13 11 13 15 16 15 14 13 16 16 17 16 17 18 22 18 22 26 26 25 23 14 12 13 12 12 11 11 11 13 12 11 12 18 21 24 24 25 25 27 17 16 20 19 17 14
9 9 8 8 9 10 10 11 10 9 9 8 9 11 11 10 11 12 12 11 12 12 13 14 14 16 16 17 16 16 15 13 14 14 15 16 15 14 14 13 14 15 16 18 18 17 16 14 14 13 15 16 16 17 23 20 24 27 27 25 25 19 21 15 12 13 13 13 11 12 13 17 17 21 23 24 24 26 23 18 23 22 20 21 19
6 6 8 7 9 9 11 11 9 8 8 7 8 10 10 11 14 13 13 12 12 14 16 16 16 17 18 18 18 17 17 16 16 16 15 16 16 15 14 12 14 14 14 14 14 14 13 15 16 15 15 16 16 15 17 25 22 27 26 27 27 27 25 16 13 13 12 12 12 13 13 18 17 19 23 23 23 23 17 23 25 26 26 21 14
7 8 7 6 9 11 12 12 9 8 8 7 7 10 13 14 13 12 12 13 15 16 16 17 18 17 18 17 16 16 17 17 16 16 17 17 17 16 15 13 14 13 15 16 14 14 15 14 15 15 15 16 17 16 15 18 24 23 28 29 28 29 27 26 17 13 14 14 16 22 20 17 16 19 23 23 21 24 29 26 25 26 23 13 13
6 6 7 8 9 9 10 12 12 8 8 8 8 7 12 13 13 12 13 13 15 17 17 18 18 16 16 17 18 18 17 16 17 15 16 16 17 16 17 16 15 15 16 16 16 15 15 15 15 15 15 17 17 16 16 15 15 17 19 25 29 27 26 26 23 16 18 23 24 23 26 25 18 18 15 13 12 13 22 28 28 24 15 13 12
6 8 8 7 8 9 11 12 14 10 7 7 8 8 9 11 12 13 13 13 15 16 17 17 17 16 17 16 16 15 15 15 15 14 13 13 14 14 14 15 15 14 14 14 15 15 15 15 16 15 16 16 17 15 16 15 15 16 15 14 15 16 21 23 18 15 17 17 19 20 16 16 13 18 19 17 16 15 13 15 14 13 13 12 12
6 7 6 6 8 10 12 13 13 11 10 9 9 9 10 12 12 12 13 15 15 15 16 16 17 15 15 14 15 19 18 15 14 13 14 14 13 13 14 15 14 14 14 16 15 15 16 15 15 15 15 15 16 16 16 15 16 14 13 12 11 11 11 11 12 12 12 13 12 13 17 14 12 12 13 12 12 11 11 11 11 11 12 11 12
7 7 7 8 9 10 11 12 13 12 11 11 10 10 11 12 10 11 13 15 17 19 17 18 16 15 14 14 14 14 14 14 15 15 14 14 14 15 15 16 16 14 15 17 17 18 18 16 15 16 17 17 17 18 18 18 20 22 20 16 14 12 10 11 13 17 13 10 9 10 10 12 11 12 11 12 11 11 11 12 12 11 11 10 9
7 7 8 9 9 10 12 13 12 11 11 12 12 12 12 11 13 13 12 15 16 17 17 16 14 14 15 14 13 13 13 14 15 15 15 15 18 24 21 18 17 23 30 32 28 21 19 16 16 16 15 17 17 17 23 29 28 28 29 30 27 27 23 16 16 21 15 10 11 11 12 10 11 11 12 11 11 12 11 11 11 12 11 10 10
9 9 9 8 10 11 12 12 12 10 11 12 13 14 14 13 11 12 13 14 15 16 16 15 14 13 15 15 15 15 14 14 14 15 15 16 16 14 22 29 30 30 30 31 32 34 36 34 26 22 21 34 36 38 36 34 33 32 31 31 30 28 29 28 25 15 13 12 11 12 12 11 9 11 8 10 10 12 12 11 11 11 11 11 10
Wind_Direction
52 55 49 38 33 23 21 16 14 21 20 15 21 15 355 305 271 251 222 209 205 200 202 199 201 207 213 217 221 218 224 232 229 228 236 232 226 205 184 182 174 177 180 177 184 182 186 185 181 166 168 177 182 186 184 182 176 174 167 164 161 147 156 155 145 141 133 127 133 140 148 159 167 234 206 198 200 184 183 187 171 173 164 153 162
73 53 43 39 30 26 22 18 17 19 13 14 17 9 2 353 316 283 222 204 209 208 204 206 212 213 212 215 219 220 218 219 224 218 228 232 220 201 192 186 177 179 177 182 183 186 187 189 185 170 172 184 188 184 182 177 173 175 163 158 178 167 164 163 157 145 172 171 158 172 187 178 187 216 224 209 207 203 192 187 180 184 170 166 160
59 45 41 34 31 28 25 24 24 23 14 15 13 11 14 8 2 327 293 227 218 216 211 213 214 219 222 230 222 222 222 224 222 226 230 226 215 199 196 185 182 181 180 185 184 190 193 192 188 173 178 180 182 184 182 179 176 177 175 170 166 184 162 168 170 182 160 167 157 148 200 188 182 224 216 220 204 205 195 192 192 186 172 172 170
51 44 35 30 30 24 23 24 22 21 21 17 15 12 9 7 3 355 344 319 273 229 237 246 244 229 222 239 239 229 249 201 207 214 215 212 210 195 201 195 190 188 186 186 186 195 198 197 191 180 179 183 186 184 184 184 178 180 182 183 167 163 181 177 186 193 179 160 178 197 184 186 220 214 194 200 197 200 196 197 193 188 177 181 181
51 43 36 31 27 26 22 21 19 22 19 16 12 12 5 8 9 2 3 6 3 354 247 263 229 193 168 96 94 184 93 192 195 216 208 204 209 203 204 198 195 194 190 191 192 199 200 202 198 189 180 185 189 193 191 188 182 187 184 183 183 174 179 162 185 195 209 200 175 157 190 202 228 120 151 172 181 194 202 204 192 191 183 185 195
47 42 40 37 34 30 25 23 24 20 17 10 7 7 5 4 17 25 33 29 20 11 353 287 251 250 232 230 231 231 243 227 229 225 217 213 216 215 210 205 200 202 202 201 199 197 201 202 201 194 185 184 192 200 199 186 189 188 187 190 189 194 176 151 175 200 210 218 245 270 355 190 189 145 160 178 169 207 193 204 197 199 187 186 199
42 41 35 33 26 28 29 26 22 20 13 7 6 6 6 5 24 35 39 42 36 11 5 339 309 288 275 271 280 279 277 268 256 251 243 233 220 213 209 203 205 205 209 209 205 203 206 206 205 204 193 192 193 201 201 198 191 192 185 195 194 190 178 180 179 178 190 236 221 201 193 191 268 144 195 115 180 191 209 193 206 196 199 196 203
48 40 37 33 30 27 26 23 21 17 7 8 10 11 9 12 30 35 39 40 33 24 20 9 339 335 321 305 290 284 285 291 305 291 255 252 232 214 211 207 204 210 214 212 209 205 204 209 210 209 206 202 194 207 206 201 185 192 194 197 196 196 194 192 182 175 179 205 203 187 193 207 272 291 278 191 167 156 193 202 205 197 203 208 207
49 46 42 36 31 28 24 25 21 15 8 5 6 10 6 15 33 40 41 38 27 27 23 20 9 345 338 327 310 303 298 296 296 299 269 238 227 214 215 215 207 209 216 219 214 212 205 210 211 210 209 210 205 209 209 207 199 184 189 193 200 200 202 201 188 187 189 191 175 205 200 200 210 230 237 211 214 172 173 177 188 184 206 215 212
51 48 49 45 37 35 32 31 30 21 7 357 3 7 3 17 37 40 39 36 29 26 22 22 14 3 348 341 331 322 319 311 302 297 298 272 241 230 224 221 219 209 211 216 217 214 212 208 213 213 213 212 211 210 212 216 211 202 196 199 205 206 205 206 204 193 196 198 192 182 195 202 210 208 219 215 251 232 216 182 175 174 191 216 198
57 55 48 45 39 34 30 34 30 25 13 2 1 0 10 32 35 39 34 33 29 27 25 24 18 10 4 349 341 331 324 317 312 307 302 291 276 260 242 236 227 219 209 212 215 216 216 213 214 216 215 214 214 212 211 209 202 195 193 203 207 211 211 210 212 208 193 203 197 197 196 195 197 200 204 205 204 195 217 188 176 186 189 169 196
54 52 45 34 32 32 29 30 27 19 8 2 357 11 27 33 33 37 33 29 26 23 24 25 21 16 7 358 344 332 324 313 309 309 309 302 293 283 271 252 242 232 220 219 218 216 216 218 217 222 219 217 216 212 210 211 212 201 195 192 201 209 217 214 217 219 206 203 208 206 208 207 211 211 209 201 197 212 200 207 175 167 194 180 148
49 46 42 28 22 25 25 28 29 24 7 6 20 24 29 32 32 36 32 26 25 24 25 25 25 19 9 358 349 342 334 326 314 304 301 300 302 296 288 278 265 247 230 225 224 216 213 219 217 216 221 219 220 217 214 212 214 208 201 203 206 207 211 212 213 213 212 208 205 210 212 208 214 218 214 206 209 206 203 215 187 163 166 145 159
55 51 49 27 24 40 37 25 21 15 16 18 23 27 29 34 31 34 33 27 24 25 25 25 27 21 11 7 354 346 338 325 317 311 310 308 306 304 302 295 289 277 266 244 232 215 215 221 222 223 224 224 220 221 217 213 212 215 205 207 207 211 211 217 223 221 221 222 215 210 212 211 216 214 216 215 206 200 210 208 163 171 175 147 136
58 60 46 41 47 42 35 28 26 26 24 25 25 27 28 31 32 35 33 27 26 24 26 27 25 22 17 10 3 355 343 336 328 325 320 317 314 311 303 303 299 297 291 282 254 227 218 222 228 230 227 227 223 220 218 220 215 220 216 215 213 211 215 216 222 221 223 221 221 219 213 216 212 210 212 219 212 207 208 201 173 158 175 148 163
52 56 46 43 43 39 36 32 30 25 24 26 28 27 27 29 33 36 33 27 25 26 28 27 25 24 23 14 8 0 349 341 334 333 328 323 317 310 302 294 291 298 301 301 288 246 226 225 230 232 234 231 228 226 220 217 213 220 226 222 221 214 218 218 222 221 225 223 224 226 226 223 218 214 214 218 215 207 208 206 194 182 189 205 171
41 33 31 32 35 33 33 34 30 29 29 28 27 25 28 29 31 31 28 27 26 26 25 26 25 24 21 17 11 6 359 352 343 335 329 324 318 309 302 300 295 286 284 296 296 270 244 232 233 235 234 234 232 231 227 224 221 223 225 226 227 220 221 221 220 221 224 223 227 225 227 229 223 222 224 221 219 218 215 213 209 208 199 216 196
41 37 37 32 29 27 28 28 25 24 26 26 28 28 28 34 33 34 28 23 21 24 26 25 20 19 17 13 9 10 5 355 349 340 332 326 320 315 313 310 306 304 297 286 277 273 268 249 241 239 237 234 233 232 230 228 225 228 227 230 231 223 227 230 225 226 227 225 229 230 230 234 230 224 227 223 224 222 219 218 221 218 207 219 217
50 42 36 32 26 25 20 17 15 16 17 21 17 17 24 28 28 32 33 32 27 24 26 33 30 24 16 13 7 5 6 2 354 349 338 331 326 319 315 313 308 303 300 295 285 275 266 257 245 241 240 236 232 232 228 229 222 229 227 232 227 229 233 231 228 224 228 225 228 230 229 232 229 230 230 227 226 223 223 222 225 220 219 223 226
72 59 50 39 35 22 12 4 5 7 8 8 10 11 18 15 16 19 22 26 28 27 22 20 23 27 23 21 19 15 9 1 353 353 345 340 333 324 319 321 316 313 303 297 288 281 275 269 255 243 236 235 235 232 229 230 228 231 230 229 227 223 232 235 233 226 227 227 229 231 228 226 224 227 231 227 224 223 221 223 223 221 224 222 219
54 47 38 23 16 14 2 3 359 5 11 13 12 14 12 11 11 11 14 11 15 17 13 9 6 6 10 12 9 10 10 7 1 360 352 346 344 334 340 333 320 313 311 299 292 289 288 282 273 261 248 240 235 234 229 230 232 234 232 233 234 230 231 234 231 232 226 227 230 232 231 228 222 224 227 224 225 221 219 226 224 223 225 218 213
55 47 25 346 7 11 8 10 10 13 16 17 17 14 13 10 8 7 12 12 2 358 358 352 356 354 359 356 349 345 353 355 4 6 3 2 353 350 344 339 335 325 326 316 310 301 292 287 284 280 273 259 247 239 232 228 231 234 235 231 235 235 236 236 234 236 228 224 227 233 236 232 224 228 229 225 223 219 218 221 223 219 224 221 211
344 332 340 349 349 334 342 339 353 5 5 15 13 18 14 9 8 7 8 2 0 348 346 346 346 350 356 357 355 348 342 338 344 349 360 356 358 358 351 350 338 330 325 318 314 319 313 309 301 290 281 275 267 259 247 235 232 233 237 235 231 232 235 238 237 235 233 230 231 233 233 229 223 227 230 230 226 221 216 217 220 215 221 220 212
314 291 310 312 324 326 323 334 327 341 342 332 348 343 358 4 7 2 360 355 348 345 340 341 339 344 344 346 348 347 349 354 355 352 354 349 348 355 345 349 342 329 329 322 323 320 318 313 310 300 291 284 276 266 260 250 245 241 240 240 235 231 234 239 241 241 237 234 234 235 235 229 224 230 232 228 226 223 219 218 218 216 218 219 213
275 292 294 302 284 295 301 314 312 310 335 320 328 331 316 325 347 340 343 338 336 332 334 332 332 336 340 347 345 347 345 348 351 348 349 346 351 349 344 339 334 331 330 332 327 332 327 320 310 305 301 294 287 279 273 266 257 247 246 247 245 239 236 237 239 242 242 237 237 237 239 229 224 231 235 229 226 222 223 221 222 219 215 215 208
300 309 311 303 309 297 316 326 303 316 317 308 299 300 304 309 318 314 318 320 313 324 312 321 320 326 327 337 338 340 341 344 343 340 342 344 343 341 341 339 339 334 333 333 330 331 330 319 313 301 294 294 294 289 282 278 273 265 259 254 252 249 246 242 240 241 242 240 242 241 240 233 228 229 235 233 229 225 224 224 226 224 218 212 208
259 279 277 294 286 299 313 319 319 322 316 306 304 303 303 306 303 312 314 316 317 319 321 321 323 323 321 330 334 336 335 335 335 333 333 332 333 329 325 333 333 328 334 336 333 326 315 305 298 294 287 286 286 286 285 282 279 275 271 270 266 259 254 249 248 247 243 242 241 242 242 235 234 234 237 235 231 229 226 227 226 224 220 215 213
254 272 280 300 312 316 327 332 338 336 333 330 330 322 325 325 324 321 331 330 323 326 317 318 316 320 317 324 324 321 324 328 329 329 331 329 328 326 325 320 319 324 331 336 329 325 317 305 293 287 282 277 269 271 273 275 276 277 276 272 269 267 265 260 255 251 248 245 241 241 241 238 237 239 238 237 228 229 226 231 229 224 219 216 216
237 247 249 258 268 280 292 301 309 316 322 327 330 331 331 331 330 332 336 339 335 332 324 324 325 320 322 319 316 318 314 323 325 326 329 331 328 324 323 320 318 311 308 309 309 312 310 305 298 291 287 277 266 255 256 264 272 271 266 267 269 270 269 268 265 259 253 250 248 244 240 237 236 237 236 235 232 227 226 230 228 218 216 213 215
243 247 248 253 258 267 272 280 286 290 296 303 308 312 319 322 323 328 332 333 340 332 330 327 327 326 328 327 318 316 317 322 326 325 330 329 324 319 316 315 313 310 310 301 291 288 288 288 295 293 285 277 267 255 244 246 251 258 265 266 265 262 264 267 270 270 265 257 253 249 242 241 238 235 234 234 234 233 231 230 228 212 209 213 213
255 256 257 261 263 266 267 265 267 275 280 285 286 287 292 293 296 303 309 320 330 324 321 323 320 322 325 323 321 319 324 321 315 318 317 325 321 318 314 311 307 304 305 303 302 299 289 290 290 288 289 285 274 265 263 257 252 256 257 258 257 259 257 259 261 264 267 266 262 256 253 245 239 239 238 235 232 232 234 234 232 224 213 209 209
268 262 260 256 255 257 260 264 268 268 266 265 265 266 270 273 279 287 291 303 305 300 306 306 311 314 318 319 317 317 315 312 313 312 316 312 308 304 302 303 305 308 308 309 303 297 298 297 289 288 286 283 285 278 274 273 271 273 267 260 256 255 253 254 256 258 261 262 262 263 261 256 242 240 238 234 233 231 230 231 231 229 226 219 214
288 273 262 255 253 255 257 259 261 260 261 256 256 256 255 255 260 261 267 271 277 283 288 292 296 301 302 305 307 307 301 293 283 283 287 295 303 310 308 297 291 296 302 302 304 305 300 296 293 293 290 285 279 273 274 277 274 271 271 267 261 255 252 252 252 254 257 258 260 261 263 256 252 241 233 232 233 232 230 228 228 230 229 227 224
287 278 270 260 253 248 248 247 248 248 247 249 244 248 250 252 254 255 252 252 258 265 269 276 278 276 283 287 295 295 295 294 299 298 295 291 298 298 298 297 295 293 289 291 290 290 293 296 297 298 294 288 280 278 278 274 273 272 273 271 260 259 256 254 254 252 253 255 255 258 261 259 253 244 237 234 231 229 226 225 228 227 228 231 230
299 291 279 270 261 256 255 257 256 254 252 246 244 239 244 250 252 255 256 259 260 268 271 275 280 279 279 279 279 280 280 283 288 293 299 301 303 304 304 301 289 283 287 290 292 290 285 284 290 293 291 287 283 277 276 273 274 275 274 274 265 261 259 256 255 253 252 252 252 252 254 258 255 241 239 238 232 228 224 222 223 225 226 225 223
323 322 318 309 293 276 269 266 265 262 256 254 260 266 269 275 283 284 281 276 274 273 272 275 277 275 274 268 273 275 273 264 264 274 284 287 289 293 299 299 290 284 282 285 282 283 290 291 285 279 280 282 282 280 278 274 272 274 276 275 270 264 262 259 258 255 252 250 249 247 251 253 252 248 244 238 230 223 217 220 225 228 229 228 229
323 324 320 319 314 304 293 289 290 297 311 316 318 329 337 331 322 310 303 293 286 279 275 275 276 276 277 277 276 275 274 267 256 267 271 274 279 285 287 286 282 281 283 282 284 284 283 282 286 284 279 277 275 274 275 273 272 272 273 268 269 268 266 264 261 259 256 253 248 243 244 250 250 248 238 227 219 214 219 219 223 227 228 229 234
320 321 317 317 327 349 357 357 345 343 345 8 23 18 352 325 308 302 298 293 290 284 280 283 281 279 280 277 275 275 275 269 264 266 268 265 270 275 278 277 273 275 277 281 283 284 282 278 276 278 274 274 276 272 272 272 271 271 265 262 263 264 263 263 266 262 258 255 250 244 237 245 250 249 242 219 218 209 221 223 224 225 229 233 235
323 325 338 357 357 350 339 338 343 344 1 14 357 350 337 316 305 299 295 293 292 292 294 294 291 287 287 289 288 285 279 275 270 270 273 277 278 275 277 278 268 266 271 278 276 276 280 280 276 273 274 272 271 274 273 270 267 265 262 254 256 259 261 261 261 263 260 257 259 251 240 241 247 248 238 223 219 211 220 222 225 224 230 233 232
336 20 14 355 355 352 344 346 346 341 345 343 338 329 325 318 311 306 302 299 299 301 304 301 296 294 297 297 295 290 284 282 282 283 281 280 280 276 272 269 265 266 274 274 274 271 275 277 277 277 276 276 275 274 272 269 263 259 254 247 248 252 255 260 258 261 264 260 258 259 246 238 244 244 236 227 222 215 216 222 221 226 229 235 216
26 19 9 360 351 346 334 327 327 334 340 341 340 331 325 324 317 309 304 305 307 309 307 303 303 303 301 298 295 292 292 289 286 288 286 280 274 274 277 274 273 271 270 271 271 273 274 275 275 274 274 271 266 266 268 267 264 258 249 241 242 242 249 254 260 259 257 262 262 257 254 238 234 235 233 224 221 221 218 217 219 226 226 227 184
6 12 3 351 340 330 325 329 337 342 340 338 337 325 317 316 312 307 313 315 316 314 312 308 302 298 297 295 293 291 289 286 284 282 280 278 276 274 273 275 273 272 273 272 272 272 271 272 271 270 269 268 266 263 264 266 264 259 253 240 236 241 239 249 253 254 254 255 255 257 257 241 232 232 233 227 223 221 221 220 221 225 224 210 194
346 343 354 353 334 329 329 329 336 338 337 339 336 322 316 315 309 313 318 319 320 316 308 300 295 295 295 294 293 291 290 287 284 282 279 278 278 275 272 271 271 272 272 273 270 268 266 266 268 268 266 267 264 264 259 257 256 255 252 246 237 237 241 241 243 251 250 252 253 254 255 250 234 223 227 227 226 224 223 225 226 225 221 203 199
338 350 350 1 333 327 320 323 331 334 337 339 339 324 318 317 311 319 318 319 319 313 308 302 301 301 302 300 299 298 295 292 289 288 284 279 277 274 271 264 264 266 267 263 266 265 262 263 268 267 264 265 266 264 261 257 254 254 253 249 243 237 236 237 235 245 250 250 253 252 251 250 233 220 224 227 227 226 224 228 230 233 229 216 201
344 347 357 357 336 322 321 316 326 337 333 336 336 323 315 310 312 321 320 321 316 314 311 305 305 305 303 302 301 298 296 294 291 288 286 282 277 277 273 265 260 252 258 261 258 258 259 260 261 260 265 271 271 271 269 266 261 252 253 250 245 242 239 236 238 242 246 248 246 250 255 253 232 222 223 225 228 228 229 229 228 230 227 216 211
352 341 351 342 329 322 316 315 319 338 329 330 327 326 312 308 315 316 315 315 313 311 306 302 303 300 300 302 302 299 295 292 291 289 284 280 279 279 274 273 268 268 262 258 256 255 254 257 259 260 260 264 268 268 269 267 266 265 260 255 251 246 242 239 236 237 240 246 250 252 253 254 230 218 221 222 225 227 230 233 234 232 225 215 208
341 340 343 337 333 319 315 316 311 324 328 320 321 315 308 308 311 311 310 309 308 303 298 297 298 299 298 299 296 294 296 296 293 290 284 282 282 281 277 276 274 272 272 269 267 264 262 260 259 261 265 267 266 266 267 267 266 265 262 257 252 250 246 244 240 241 244 249 251 252 252 246 232 225 220 222 225 226 225 225 227 226 226 219 206
336 331 346 332 321 315 313 315 311 318 319 317 311 305 305 308 306 308 309 307 301 298 295 295 297 296 294 295 292 291 292 292 293 291 290 288 284 281 279 276 276 278 279 278 276 272 268 267 268 267 268 267 264 264 259 259 262 262 268 265 256 250 246 237 239 237 236 242 246 252 253 251 237 227 225 221 222 219 217 217 216 217 220 220 210
328 328 337 322 316 312 308 307 304 310 310 307 302 300 304 304 303 305 305 303 301 299 297 295 296 294 292 292 291 291 290 290 290 287 281 279 282 283 280 278 274 274 273 273 274 273 270 271 271 269 268 267 265 262 260 263 264 265 265 269 265 258 251 246 237 234 236 236 237 241 244 238 229 221 217 218 217 215 213 212 210 211 213 212 203
322 317 314 310 310 307 304 303 300 304 304 303 301 301 302 306 304 304 305 303 302 301 299 298 297 295 294 293 293 292 290 288 287 286 287 282 274 275 277 277 279 275 273 272 272 272 272 268 266 262 260 265 267 267 272 271 268 267 266 263 261 262 258 249 240 235 230 230 230 234 232 221 217 214 215 213 210 210 212 211 211 206 205 206 200
317 312 309 314 309 304 298 296 297 302 303 305 303 305 308 309 306 303 303 300 302 301 299 297 296 294 295 296 295 292 289 287 286 286 286 287 290 281 277 279 279 281 280 278 278 278 278 278 276 277 271 266 266 268 269 269 270 269 267 268 269 269 266 264 258 250 240 231 231 233 229 215 206 207 194 198 197 207 207 206 204 202 203 201 194